Regional Weather Roundup
Issued by NWS Northern Indiana

Home | Current Version | Previous Version | Text Only | Print | Product List | Glossary Off
Versions: 1 2 3 4 5 6 7 8 9 10 11 12 13 14 15 16 17 18 19 20 21 22 23 24 25 26 27 28 29 30 31 32 33 34 35 36 37 38 39 40 41 42 43 44 45 46 47 48 49 50

000
ASUS43 KIWX 110200
RWRIWX

KIWX WEATHER ROUNDUP
NATIONAL WEATHER SERVICE NORTHERN INDIANA
900 PM EST WED FEB 10 2016

NOTE: "FAIR" INDICATES FEW OR NO CLOUDS BELOW 12,000 FEET WITH NO
SIGNIFICANT WEATHER AND/OR OBSTRUCTIONS TO VISIBILITY.

* THESE STATIONS ARE NOT UNDER NWS QUALITY CONTROL. THEY ALSO MAY NOT
  REPORT WEATHER SUCH AS PRECIPITATION OR FOG.

INZ001>027-110300-
NORTHERN INDIANA

CITY           SKY/WX    TMP DP  RH WIND       PRES   REMARKS
GARY*          MOCLDY    18   1  49 NW9       30.12R WCI   6
SOUTH BEND     CLOUDY    13  10  88 W8        30.08R FOG     WCI   2
ELKHART*       FLURRIES  16  10  79 W12       30.08R WCI   3
GOSHEN         CLOUDY    13   8  81 W12       30.06R WCI  -1
MONTICELLO*    CLOUDY    16   4  59 NW8       30.11R WCI   6
WARSAW*        CLOUDY    14   9  79 W9        30.07R WCI   2
ANGOLA*        CLOUDY    12  10  92 NW6       30.01R VSB 3/4 WCI   3
FORT WAYNE     CLOUDY    16   7  67 W15       30.07R WCI   1
PERU/GRISSOM   FLURRIES  16   8  72 W10       30.08R WCI   4

$$
INZ028>050-110300-
CENTRAL INDIANA

CITY           SKY/WX    TMP DP  RH WIND       PRES   REMARKS
LAFAYETTE      PTCLDY    12   5  73 CALM      30.13R
KOKOMO*        CLOUDY    16   9  73 W9        30.10R WCI   4
MUNCIE*        CLOUDY    15   6  67 W10       30.09R WCI   2
INDIANAPOLIS   CLOUDY    14   6  70 W5        30.11R WCI   6

$$
MIZ043>046-050>051-056>058-064>065-071>073-077>080-110300-
SOUTHWEST LOWER MICHIGAN

CITY           SKY/WX    TMP DP  RH WIND       PRES   REMARKS
BATTLE CREEK   CLEAR     14   2  58 NW9       30.02R WCI   2
BENTON HARBOR  CLOUDY    18   8  65 NW7       30.08R WCI   9
COLDWATER*     CLOUDY    15   8  71 NW7       30.01R WCI   6
HILLSDALE*     CLOUDY    14   0  52 NW14G24   29.97R WCI   0
HOLLAND        LGT SNOW  15  10  80 N3        30.06R
GRAND RAPIDS   PTCLDY    14   7  73 NW7       30.03R WCI   4
KALAMAZOO      CLOUDY    15   5  64 NW10      30.04R WCI   2
STURGIS*       LGT SNOW  15  12  88 N8        30.03R VSB 1   WCI   4
THREE RIVERS*  LGT SNOW  16  11  82 N6        30.05R WCI   7

$$
OHZ001>008-015>018-024>025-110300-
NORTHWEST OHIO

CITY           SKY/WX    TMP DP  RH WIND       PRES   REMARKS
DEFIANCE       CLOUDY    17   8  67 W9G18     30.04R WCI   6
FINDLAY        LGT SNOW  17  12  80 W21       30.00R WCI   0
TOLEDO EXPRESS LGT SNOW  16  12  84 W12       30.00R FOG     WCI   3
TOLEDO METCALF CLOUDY    19  12  74 NW14      30.00R WCI   6
LIMA           FLURRIES  15   9  76 W20       30.03R WCI  -2

$$
AND FOR LAKE MICHIGAN COASTAL AND OPEN LAKE BUOY OBSERVATIONS

STATION/POSITION TEMP    WIND        PRES    VSBY  WAVE
                 AIR SEA DIR/SP/G                  HT/PER
                 (F)     (DEG/KT/KT) (MB)    (MI)  (FT/S)
CALUMET HARBOR    15     330/  9/ 12 1019.1R
MICHIGAN CITY     17     290/ 11/ 14   N/A
BURNS HARBOR      18     330/ 11/ 17 1019.6R
SAINT JOSEPH      18     330/ 14/ 18 1018.6S

$$
&&



USA.gov is the U.S. government's official web portal to all federal, state and local government web resources and services.